Вернуться в каталог

FENGYUN 1C DEB

АктивенSSO
NORAD 37017·DEBRIS·🇨🇳 China

Запущен May 10, 1999 с Taiyuan Satellite Launch Center

Loading…

Ближайшие Пролёты (ближайшие 24 часа)

TLE

УстаревающийSource: Space-Track

Эпоха: Sep 9, 2026, 03:27 UTC

1 37017U 99025ECZ 26252.14399760  .00003436  00000-0  66026-3 0  9998
2 37017  98.8155 210.6705 0271015 278.2954  78.7591 14.43562078650592

Отслеживайте FENGYUN 1C DEB в реальном времени с AllMySat

Download on the App Store